| time (UTC) | temp C | wind direction | speed KPH | gust KPH | rain 1hr cm | rain 24hr cm | rain mn cm | humidity % | barometer mb |
| 20260510061018 | 21 | 0.0 | 0.0 | 0.00 | 0.00 | 0.00 | 83 | 1009.9 | |
| 20260510060058 | 21 | 0.0 | 0.0 | 0.00 | 0.00 | 0.00 | 82 | 1010.0 | |
| 20260510055018 | 21 | 0.0 | 0.0 | 0.00 | 0.00 | 0.00 | 81 | 1009.9 | |
| 20260510054017 | 21 | 0.0 | 0.0 | 0.00 | 0.00 | 0.00 | 81 | 1009.9 | |
| 20260510053019 | 21 | 0.0 | 0.0 | 0.00 | 0.00 | 0.00 | 80 | 1009.9 | |
| 20260510052017 | 22 | 0.0 | 0.0 | 0.00 | 0.00 | 0.00 | 80 | 1009.8 | |
| 20260510051017 | 22 | 0.0 | 0.0 | 0.00 | 0.00 | 0.00 | 79 | 1009.8 | |
| 20260510050016 | 22 | 0.0 | 0.0 | 0.00 | 0.00 | 0.00 | 78 | 1009.9 | |
| 20260510045017 | 22 | 0.0 | 0.0 | 0.00 | 0.00 | 0.00 | 78 | 1009.8 | |
| 20260510044017 | 22 | 0.0 | 1.6 | 0.00 | 0.00 | 0.00 | 77 | 1009.7 | |
| 20260510043017 | 22 | 0.0 | 1.6 | 0.00 | 0.00 | 0.00 | 76 | 1009.6 | |
| 20260510042017 | 23 | 0.0 | 1.6 | 0.00 | 0.00 | 0.00 | 76 | 1009.5 | |
| 20260510041017 | 23 | 0.0 | 0.0 | 0.00 | 0.00 | 0.00 | 75 | 1009.6 | |
| 20260510040017 | 23 | 0.0 | 0.0 | 0.00 | 0.00 | 0.00 | 74 | 1009.5 | |
| 20260510035016 | 23 | 0.0 | 3.2 | 0.00 | 0.00 | 0.00 | 74 | 1009.2 | |
| 20260510034017 | 23 | 0.0 | 3.2 | 0.00 | 0.00 | 0.00 | 74 | 1009.1 | |
| 20260510033016 | 23 | 0.0 | 4.8 | 0.00 | 0.00 | 0.00 | 74 | 1009.1 | |
| 20260510032016 | 23 | 0.0 | 4.8 | 0.00 | 0.00 | 0.00 | 74 | 1008.8 | |
| 20260510031017 | 23 | 0.0 | 3.2 | 0.00 | 0.00 | 0.00 | 73 | 1008.7 | |
| 20260510030017 | 24 | 0.0 | 0.0 | 0.00 | 0.00 | 0.00 | 70 | 1008.6 | |
| 20260510025016 | 24 | 0.0 | 0.0 | 0.00 | 0.00 | 0.00 | 68 | 1008.3 | |
| 20260510024018 | 25 | 0.0 | 0.0 | 0.00 | 0.00 | 0.00 | 65 | 1008.3 | |
| 20260510023017 | 25 | 0.0 | 0.0 | 0.00 | 0.00 | 0.00 | 63 | 1008.2 | |
| 20260510022017 | 25 | 0.0 | 1.6 | 0.00 | 0.00 | 0.00 | 63 | 1008.1 | |
| 20260510021016 | 26 | 0.0 | 3.2 | 0.00 | 0.00 | 0.00 | 61 | 1007.9 | |
| 20260510020037 | 26 | 0.0 | 0.0 | 0.00 | 0.00 | 0.00 | 59 | 1007.7 | |
| 20260510015016 | 26 | 0.0 | 0.0 | 0.00 | 0.00 | 0.00 | 58 | 1007.5 | |
| 20260510014016 | 27 | 0.0 | 0.0 | 0.00 | 0.00 | 0.00 | 57 | 1007.5 | |
| 20260510013036 | 27 | 0.0 | 0.0 | 0.00 | 0.00 | 0.00 | 56 | 1007.4 | |
| 20260510012016 | 28 | 0.0 | 0.0 | 0.00 | 0.00 | 0.00 | 54 | 1007.4 | |
| 20260510011016 | 28 | 0.0 | 0.0 | 0.00 | 0.00 | 0.00 | 52 | 1007.4 | |
| 20260510010017 | 29 | 0.0 | 0.0 | 0.00 | 0.00 | 0.00 | 50 | 1007.4 | |
| 20260510005016 | 30 | 0.0 | 0.0 | 0.00 | 0.00 | 0.00 | 50 | 1007.3 | |
| 20260510004056 | 30 | 0.0 | 3.2 | 0.00 | 0.00 | 0.00 | 48 | 1007.4 | |
| 20260510003016 | 31 | 0.0 | 0.0 | 0.00 | 0.00 | 0.00 | 49 | 1007.4 | |
| 20260510002036 | 31 | 0.0 | 1.6 | 0.00 | 0.00 | 0.00 | 47 | 1007.3 | |
| 20260510001016 | 31 | 0.0 | 0.0 | 0.00 | 0.00 | 0.00 | 44 | 1007.4 | |
| 20260510000036 | 32 | 0.0 | 1.6 | 0.00 | 0.00 | 0.00 | 43 | 1007.3 | |
| 20260509235017 | 32 | 23 | 1.6 | 6.4 | 0.00 | 0.00 | 0.00 | 40 | 1007.4 |
| 20260509234016 | 32 | 0.0 | 6.4 | 0.00 | 0.00 | 0.00 | 41 | 1007.4 | |
| 20260509233016 | 32 | 0.0 | 3.2 | 0.00 | 0.00 | 0.00 | 42 | 1007.4 | |
| 20260509232016 | 32 | 0.0 | 0.0 | 0.00 | 0.00 | 0.00 | 42 | 1007.4 | |
| 20260509231017 | 32 | 0.0 | 3.2 | 0.00 | 0.00 | 0.00 | 42 | 1007.4 | |
| 20260509230016 | 32 | 0.0 | 0.0 | 0.00 | 0.00 | 0.00 | 41 | 1007.5 | |
| 20260509225016 | 32 | 0.0 | 3.2 | 0.00 | 0.00 | 0.00 | 40 | 1007.6 | |
| 20260509224016 | 33 | 203 | 1.6 | 4.8 | 0.00 | 0.00 | 0.00 | 39 | 1007.8 |
| 20260509223036 | 33 | 203 | 3.2 | 6.4 | 0.00 | 0.00 | 0.00 | 40 | 1007.7 |
| 20260509222016 | 33 | 0 | 1.6 | 6.4 | 0.00 | 0.00 | 0.00 | 40 | 1007.7 |
| 20260509221016 | 33 | 23 | 3.2 | 8.0 | 0.00 | 0.00 | 0.00 | 39 | 1007.7 |
| 20260509220015 | 33 | 248 | 3.2 | 8.0 | 0.00 | 0.00 | 0.00 | 37 | 1007.8 |
| 20260509215039 | 34 | 158 | 3.2 | 8.0 | 0.00 | 0.00 | 0.00 | 40 | 1007.8 |
| 20260509214018 | 33 | 203 | 1.6 | 14.5 | 0.00 | 0.00 | 0.00 | 40 | 1007.8 |
| 20260509213018 | 33 | 338 | 1.6 | 6.4 | 0.00 | 0.00 | 0.00 | 40 | 1008.0 |
| 20260509212017 | 33 | 270 | 4.8 | 11.3 | 0.00 | 0.00 | 0.00 | 40 | 1008.2 |
| 20260509211017 | 32 | 338 | 1.6 | 8.0 | 0.00 | 0.00 | 0.00 | 42 | 1008.0 |
| 20260509210017 | 33 | 180 | 3.2 | 16.1 | 0.00 | 0.00 | 0.00 | 42 | 1008.3 |
| 20260509205039 | 33 | 293 | 3.2 | 8.0 | 0.00 | 0.00 | 0.00 | 41 | 1008.5 |
| 20260509204017 | 33 | 225 | 3.2 | 11.3 | 0.00 | 0.00 | 0.00 | 43 | 1008.8 |
| 20260509203017 | 33 | 248 | 3.2 | 12.9 | 0.00 | 0.00 | 0.00 | 45 | 1009.0 |
| 20260509202017 | 32 | 270 | 3.2 | 9.7 | 0.00 | 0.00 | 0.00 | 47 | 1009.1 |
| 20260509201017 | 32 | 225 | 3.2 | 8.0 | 0.00 | 0.00 | 0.00 | 44 | 1009.1 |
| 20260509200017 | 32 | 293 | 4.8 | 11.3 | 0.00 | 0.00 | 0.00 | 43 | 1009.2 |
| 20260509195018 | 31 | 270 | 4.8 | 12.9 | 0.00 | 0.00 | 0.00 | 44 | 1009.3 |
| 20260509194017 | 31 | 203 | 3.2 | 14.5 | 0.00 | 0.00 | 0.00 | 49 | 1009.5 |
| 20260509193018 | 32 | 270 | 3.2 | 14.5 | 0.00 | 0.00 | 0.00 | 47 | 1009.5 |
| 20260509192018 | 31 | 248 | 3.2 | 12.9 | 0.00 | 0.00 | 0.00 | 47 | 1009.5 |
| 20260509191017 | 31 | 248 | 4.8 | 16.1 | 0.00 | 0.00 | 0.00 | 49 | 1009.7 |
| 20260509190037 | 31 | 225 | 4.8 | 16.1 | 0.00 | 0.00 | 0.00 | 49 | 1009.7 |
| 20260509185057 | 31 | 180 | 4.8 | 14.5 | 0.00 | 0.00 | 0.00 | 51 | 1009.7 |
| 20260509184017 | 30 | 270 | 3.2 | 11.3 | 0.00 | 0.00 | 0.00 | 53 | 1010.0 |
| 20260509183017 | 30 | 225 | 3.2 | 9.7 | 0.00 | 0.00 | 0.00 | 55 | 1010.2 |
| 20260509182038 | 30 | 158 | 4.8 | 16.1 | 0.00 | 0.00 | 0.00 | 55 | 1010.2 |
| 20260509181017 | 30 | 270 | 4.8 | 16.1 | 0.00 | 0.00 | 0.00 | 58 | 1010.4 |
| 20260509180038 | 30 | 225 | 1.6 | 9.7 | 0.00 | 0.00 | 0.00 | 60 | 1010.5 |
| 20260509175017 | 29 | 338 | 3.2 | 11.3 | 0.00 | 0.00 | 0.00 | 61 | 1010.7 |
| 20260509174017 | 30 | 225 | 3.2 | 8.0 | 0.00 | 0.00 | 0.00 | 61 | 1010.9 |
| 20260509173018 | 30 | 225 | 3.2 | 16.1 | 0.00 | 0.00 | 0.00 | 60 | 1011.0 |
| 20260509172017 | 29 | 158 | 3.2 | 14.5 | 0.00 | 0.00 | 0.00 | 65 | 1011.0 |
| 20260509171017 | 28 | 158 | 3.2 | 9.7 | 0.00 | 0.00 | 0.00 | 67 | 1011.0 |
| 20260509170017 | 28 | 158 | 3.2 | 16.1 | 0.00 | 0.00 | 0.00 | 68 | 1011.1 |
| 20260509165037 | 28 | 113 | 4.8 | 9.7 | 0.00 | 0.00 | 0.00 | 70 | 1011.1 |
| 20260509164017 | 27 | 135 | 3.2 | 8.0 | 0.00 | 0.00 | 0.00 | 73 | 1011.1 |
| 20260509163017 | 26 | 135 | 3.2 | 9.7 | 0.00 | 0.00 | 0.00 | 75 | 1010.9 |
| 20260509162016 | 26 | 135 | 4.8 | 14.5 | 0.00 | 0.00 | 0.00 | 74 | 1011.1 |
| 20260509161017 | 26 | 135 | 3.2 | 11.3 | 0.00 | 0.00 | 0.00 | 78 | 1011.1 |
| 20260509160017 | 25 | 135 | 3.2 | 11.3 | 0.00 | 0.00 | 0.00 | 81 | 1010.9 |
| 20260509155016 | 25 | 135 | 3.2 | 11.3 | 0.00 | 0.00 | 0.00 | 83 | 1010.7 |
| 20260509154017 | 23 | 113 | 3.2 | 8.0 | 0.00 | 0.00 | 0.00 | 91 | 1010.8 |
| 20260509153016 | 23 | 113 | 3.2 | 8.0 | 0.00 | 0.00 | 0.00 | 94 | 1010.2 |
| 20260509152017 | 22 | 113 | 3.2 | 9.7 | 0.00 | 0.00 | 0.00 | 95 | 1010.2 |
| 20260509151016 | 21 | 158 | 1.6 | 8.0 | 0.00 | 0.00 | 0.00 | 95 | 1009.8 |
| 20260509150016 | 21 | 203 | 1.6 | 6.4 | 0.00 | 0.00 | 0.00 | 95 | 1009.9 |
| 20260509145016 | 21 | 203 | 3.2 | 9.7 | 0.00 | 0.00 | 0.00 | 95 | 1009.9 |
| 20260509144036 | 20 | 135 | 3.2 | 8.0 | 0.00 | 0.00 | 0.00 | 95 | 1010.1 |
| 20260509143016 | 20 | 158 | 3.2 | 6.4 | 0.00 | 0.00 | 0.00 | 95 | 1009.7 |
| 20260509142058 | 20 | 135 | 3.2 | 8.0 | 0.00 | 0.00 | 0.00 | 95 | 1009.7 |
| 20260509141016 | 20 | 225 | 3.2 | 8.0 | 0.00 | 0.00 | 0.00 | 95 | 1009.9 |
| 20260509140018 | 20 | 113 | 1.6 | 6.4 | 0.00 | 0.00 | 0.00 | 95 | 1009.9 |
| 20260509135016 | 20 | 338 | 1.6 | 4.8 | 0.00 | 0.00 | 0.00 | 95 | 1010.2 |
| 20260509134016 | 19 | 338 | 1.6 | 6.4 | 0.00 | 0.00 | 0.00 | 95 | 1010.5 |
| 20260509133016 | 19 | 0 | 3.2 | 8.0 | 0.00 | 0.00 | 0.00 | 95 | 1010.6 |
| 20260509132036 | 19 | 23 | 3.2 | 8.0 | 0.00 | 0.00 | 0.00 | 95 | 1010.5 |
| 20260509131017 | 20 | 45 | 1.6 | 3.2 | 0.00 | 0.00 | 0.00 | 95 | 1010.5 |
| 20260509130016 | 19 | 23 | 1.6 | 6.4 | 0.00 | 0.00 | 0.00 | 95 | 1010.4 |
| 20260509125016 | 19 | 23 | 1.6 | 4.8 | 0.00 | 0.00 | 0.00 | 95 | 1010.4 |
| 20260509124016 | 19 | 23 | 1.6 | 6.4 | 0.00 | 0.00 | 0.00 | 95 | 1010.4 |
| 20260509123016 | 19 | 23 | 3.2 | 8.0 | 0.00 | 0.00 | 0.00 | 95 | 1010.2 |
| 20260509122016 | 19 | 45 | 3.2 | 8.0 | 0.00 | 0.00 | 0.00 | 95 | 1010.4 |
| 20260509121016 | 19 | 45 | 3.2 | 9.7 | 0.00 | 0.00 | 0.00 | 95 | 1010.6 |
| 20260509120016 | 19 | 338 | 3.2 | 8.0 | 0.00 | 0.00 | 0.00 | 95 | 1010.4 |
| 20260509115017 | 19 | 68 | 3.2 | 9.7 | 0.00 | 0.00 | 0.00 | 95 | 1010.6 |
| 20260509114016 | 20 | 0 | 6.4 | 11.3 | 0.00 | 0.00 | 0.00 | 95 | 1010.7 |
| 20260509113017 | 20 | 23 | 4.8 | 9.7 | 0.00 | 0.00 | 0.00 | 95 | 1010.8 |
| 20260509112016 | 20 | 0 | 8.0 | 19.3 | 0.00 | 0.00 | 0.00 | 95 | 1010.9 |
| 20260509111016 | 20 | 0 | 4.8 | 14.5 | 0.00 | 0.00 | 0.00 | 95 | 1010.9 |
| 20260509110017 | 20 | 0 | 6.4 | 16.1 | 0.00 | 0.00 | 0.00 | 95 | 1011.1 |
| 20260509105016 | 20 | 0 | 4.8 | 16.1 | 0.00 | 0.00 | 0.00 | 95 | 1011.0 |
| 20260509104016 | 20 | 0.0 | 0.0 | 0.00 | 0.00 | 0.00 | 95 | 1010.1 | |
| 20260509103016 | 20 | 0.0 | 0.0 | 0.00 | 0.00 | 0.00 | 95 | 1009.9 | |
| 20260509102016 | 20 | 0.0 | 0.0 | 0.00 | 0.00 | 0.00 | 95 | 1009.9 | |
| 20260509101015 | 20 | 0.0 | 0.0 | 0.00 | 0.00 | 0.00 | 95 | 1009.7 | |
| 20260509100037 | 20 | 0.0 | 0.0 | 0.00 | 0.00 | 0.00 | 94 | 1009.4 | |
| 20260509095016 | 20 | 0.0 | 0.0 | 0.00 | 0.00 | 0.00 | 94 | 1009.4 | |
| 20260509094119 | 20 | 0.0 | 0.0 | 0.00 | 0.00 | 0.00 | 94 | 1009.5 | |
| 20260509093017 | 20 | 0.0 | 0.0 | 0.00 | 0.00 | 0.00 | 94 | 1009.4 | |
| 20260509092037 | 20 | 0.0 | 0.0 | 0.00 | 0.00 | 0.00 | 94 | 1009.0 | |
| 20260509091018 | 20 | 0.0 | 0.0 | 0.00 | 0.00 | 0.00 | 94 | 1009.0 | |
| 20260509090118 | 20 | 0.0 | 0.0 | 0.00 | 0.00 | 0.00 | 94 | 1009.2 | |
| 20260509085058 | 20 | 0.0 | 0.0 | 0.00 | 0.00 | 0.00 | 94 | 1009.3 | |
| 20260509084018 | 20 | 0.0 | 0.0 | 0.00 | 0.00 | 0.00 | 94 | 1009.5 | |
| 20260509083017 | 20 | 0.0 | 0.0 | 0.00 | 0.00 | 0.00 | 94 | 1009.7 | |
| 20260509082018 | 20 | 0.0 | 0.0 | 0.00 | 0.00 | 0.00 | 94 | 1009.7 | |
| 20260509081037 | 19 | 0.0 | 0.0 | 0.00 | 0.00 | 0.00 | 94 | 1010.0 | |
| 20260509080018 | 19 | 0.0 | 0.0 | 0.00 | 0.00 | 0.00 | 94 | 1010.0 | |
| 20260509075017 | 19 | 0.0 | 0.0 | 0.00 | 0.00 | 0.00 | 94 | 1009.9 | |
| 20260509074037 | 19 | 0.0 | 0.0 | 0.00 | 0.00 | 0.00 | 94 | 1009.9 | |
| 20260509073018 | 19 | 0.0 | 0.0 | 0.00 | 0.00 | 0.00 | 94 | 1009.8 | |
| 20260509072017 | 19 | 0.0 | 0.0 | 0.00 | 0.00 | 0.00 | 94 | 1010.0 | |
| 20260509071041 | 19 | 0.0 | 0.0 | 0.00 | 0.00 | 0.00 | 94 | 1010.0 | |
| 20260509070017 | 19 | 0.0 | 0.0 | 0.00 | 0.00 | 0.00 | 94 | 1010.1 | |
| 20260509065058 | 19 | 0.0 | 0.0 | 0.00 | 0.00 | 0.00 | 94 | 1009.8 | |
| 20260509064017 | 19 | 0.0 | 4.8 | 0.00 | 0.00 | 0.00 | 94 | 1009.8 | |
| 20260509063017 | 19 | 0.0 | 0.0 | 0.00 | 0.00 | 0.00 | 94 | 1009.8 | |
| 20260509062058 | 18 | 0.0 | 0.0 | 0.00 | 0.00 | 0.00 | 94 | 1009.6 |